FRS177 RCLM-VHHX

Flight info

Callsign FRS177
Flight time 1h 13m
Altitude 8500
Route DCT
Aircraft PA24/L-SDGRY/S

Departure

Time 2026-04-16 14:32
Airport Dongsha Island (Pratas Island) Airport (RCLM)

Arrival

Time 2026-04-16 15:45
Airport Hong Kong International Airport Kai Tak (VHHX)
Time Latitude Longitude Altitude Speed Heading
2026-04-16 14:30 20.70407 116.72727 9 ft 0 kts 216°
2026-04-16 14:31 20.70417 116.72756 9 ft 20 kts 36°
2026-04-16 14:31 20.70458 116.72785 11 ft 2 kts 31°
2026-04-16 14:31 20.70509 116.72735 13 ft 21 kts 283°
2026-04-16 14:32 20.70590 116.72374 18 ft 78 kts 280°
2026-04-16 14:32 20.70664 116.71817 222 ft 78 kts 274°
2026-04-16 14:32 20.70631 116.71245 407 ft 89 kts 256°
2026-04-16 14:32 20.70335 116.70681 689 ft 82 kts 227°
2026-04-16 14:33 20.69926 116.70231 887 ft 91 kts 226°
2026-04-16 14:33 20.69555 116.69718 1192 ft 84 kts 248°
2026-04-16 14:33 20.69491 116.69076 1394 ft 90 kts 281°
2026-04-16 14:33 20.69625 116.68472 1697 ft 83 kts 284°
2026-04-16 14:34 20.69788 116.67846 1906 ft 86 kts 287°
2026-04-16 14:34 20.69957 116.67256 2143 ft 86 kts 286°
2026-04-16 14:34 20.70137 116.66644 2393 ft 82 kts 287°
2026-04-16 14:34 20.70314 116.66054 2588 ft 87 kts 285°
2026-04-16 14:35 20.70510 116.65464 2840 ft 81 kts 289°
2026-04-16 14:35 20.70755 116.64899 3023 ft 85 kts 294°
2026-04-16 14:35 20.71070 116.64388 3249 ft 83 kts 304°
2026-04-16 14:35 20.71493 116.63937 3436 ft 87 kts 316°
2026-04-16 14:36 20.72022 116.63623 3636 ft 90 kts 333°
2026-04-16 14:36 20.72654 116.63481 3826 ft 93 kts 352°
2026-04-16 14:36 20.73292 116.63570 4021 ft 97 kts
2026-04-16 14:36 20.73950 116.63406 4211 ft 98 kts 316°
2026-04-16 14:37 20.74379 116.62916 4492 ft 87 kts 304°
2026-04-16 14:37 20.74792 116.62383 4628 ft 97 kts 304°
2026-04-16 14:37 20.75301 116.61718 4570 ft 122 kts 305°
2026-04-16 14:37 20.75771 116.61101 4985 ft 103 kts 304°
2026-04-16 14:38 20.76258 116.60429 4984 ft 121 kts 303°
2026-04-16 14:38 20.76744 116.59774 5335 ft 108 kts 304°
2026-04-16 14:38 20.77238 116.59084 5388 ft 121 kts 303°
2026-04-16 14:38 20.77698 116.58411 5693 ft 111 kts 302°
2026-04-16 14:39 20.78171 116.57697 5778 ft 122 kts 302°
2026-04-16 14:39 20.78636 116.56989 6108 ft 113 kts 302°
2026-04-16 14:39 20.79100 116.56263 6236 ft 123 kts 302°
2026-04-16 14:39 20.79564 116.55532 6535 ft 115 kts 302°
2026-04-16 14:40 20.80057 116.54749 6466 ft 140 kts 302°
2026-04-16 14:40 20.80628 116.53851 6466 ft 150 kts 303°
2026-04-16 14:40 20.81234 116.52921 6496 ft 155 kts 303°
2026-04-16 14:40 20.81863 116.51966 6504 ft 159 kts 304°
2026-04-16 14:41 20.82505 116.50991 6505 ft 162 kts 304°
2026-04-16 14:41 20.83157 116.50001 6507 ft 163 kts 304°
2026-04-16 14:41 20.83812 116.49007 6504 ft 164 kts 304°
2026-04-16 14:41 20.84470 116.48008 6510 ft 164 kts 304°
2026-04-16 14:42 20.85130 116.47007 6508 ft 165 kts 304°
2026-04-16 14:42 20.85791 116.46004 6506 ft 165 kts 304°
2026-04-16 14:42 20.86452 116.45001 6504 ft 165 kts 304°
2026-04-16 14:42 20.87112 116.43996 6501 ft 165 kts 304°
2026-04-16 14:43 20.87772 116.42992 6501 ft 165 kts 304°
2026-04-16 14:43 20.88433 116.41988 6501 ft 165 kts 304°
2026-04-16 14:43 20.89093 116.40983 6498 ft 165 kts 304°
2026-04-16 14:43 20.89754 116.39976 6500 ft 165 kts 304°
2026-04-16 14:44 20.90415 116.38971 6499 ft 165 kts 304°
2026-04-16 14:44 20.91077 116.37966 6500 ft 165 kts 304°
2026-04-16 14:44 20.91738 116.36961 6498 ft 165 kts 304°
2026-04-16 14:44 20.92397 116.35954 6498 ft 165 kts 304°
2026-04-16 14:45 20.93055 116.34948 6499 ft 165 kts 304°
2026-04-16 14:45 20.93714 116.33942 6500 ft 165 kts 304°
2026-04-16 14:45 20.94371 116.32938 6501 ft 165 kts 304°
2026-04-16 14:45 20.95028 116.31931 6504 ft 165 kts 304°
2026-04-16 14:46 20.95678 116.30938 6501 ft 165 kts 304°
2026-04-16 14:46 20.96337 116.29933 6503 ft 165 kts 304°
2026-04-16 14:46 20.96959 116.28982 6501 ft 165 kts 304°
2026-04-16 14:46 20.97615 116.27977 6498 ft 165 kts 304°
2026-04-16 14:47 20.98273 116.26972 6497 ft 165 kts 304°
2026-04-16 14:47 20.98930 116.25964 6500 ft 165 kts 304°
2026-04-16 14:47 20.99587 116.24959 6497 ft 165 kts 304°
2026-04-16 14:47 21.00246 116.23952 6501 ft 165 kts 304°
2026-04-16 14:48 21.00903 116.22948 6499 ft 165 kts 304°
2026-04-16 14:48 21.01560 116.21942 6497 ft 165 kts 304°
2026-04-16 14:48 21.02216 116.20934 6500 ft 165 kts 304°
2026-04-16 14:48 21.02872 116.19929 6500 ft 165 kts 304°
2026-04-16 14:49 21.03527 116.18923 6495 ft 165 kts 304°
2026-04-16 14:49 21.04184 116.17916 6499 ft 165 kts 304°
2026-04-16 14:49 21.04840 116.16909 6496 ft 165 kts 304°
2026-04-16 14:49 21.05496 116.15904 6500 ft 165 kts 304°
2026-04-16 14:50 21.06152 116.14898 6501 ft 165 kts 304°
2026-04-16 14:50 21.06807 116.13892 6498 ft 165 kts 304°
2026-04-16 14:50 21.07463 116.12886 6500 ft 165 kts 304°
2026-04-16 14:50 21.08119 116.11880 6498 ft 165 kts 304°
2026-04-16 14:51 21.08776 116.10873 6499 ft 165 kts 304°
2026-04-16 14:51 21.09427 116.09872 6499 ft 165 kts 304°
2026-04-16 14:51 21.10086 116.08860 6501 ft 165 kts 304°
2026-04-16 14:51 21.10743 116.07852 6500 ft 165 kts 304°
2026-04-16 14:53 21.15319 116.00818 6500 ft 165 kts 304°
2026-04-16 14:53 21.15973 115.99810 6499 ft 165 kts 304°
2026-04-16 14:54 21.16628 115.98803 6501 ft 165 kts 304°
2026-04-16 14:54 21.17282 115.97795 6499 ft 165 kts 304°
2026-04-16 14:54 21.17936 115.96787 6499 ft 164 kts 304°
2026-04-16 14:54 21.18588 115.95782 6496 ft 164 kts 304°
2026-04-16 14:55 21.19240 115.94776 6498 ft 164 kts 304°
2026-04-16 14:55 21.19892 115.93771 6500 ft 164 kts 304°
2026-04-16 14:55 21.20544 115.92766 6499 ft 164 kts 304°
2026-04-16 14:55 21.21195 115.91762 6498 ft 164 kts 304°
2026-04-16 14:56 21.21847 115.90758 6498 ft 164 kts 304°
2026-04-16 14:56 21.22499 115.89755 6496 ft 164 kts 304°
2026-04-16 14:56 21.23152 115.88751 6495 ft 164 kts 304°
2026-04-16 14:56 21.23805 115.87747 6499 ft 164 kts 304°
2026-04-16 14:57 21.24456 115.86745 6501 ft 164 kts 304°
2026-04-16 14:57 21.25109 115.85742 6499 ft 164 kts 304°
2026-04-16 14:57 21.25761 115.84740 6501 ft 164 kts 304°
2026-04-16 14:57 21.26411 115.83738 6501 ft 164 kts 304°
2026-04-16 14:58 21.27066 115.82737 6500 ft 164 kts 304°
2026-04-16 14:58 21.28368 115.80735 6498 ft 164 kts 304°
2026-04-16 14:58 21.29018 115.79733 6498 ft 164 kts 304°
2026-04-16 14:59 21.29668 115.78731 6496 ft 164 kts 303°
2026-04-16 14:59 21.30318 115.77729 6494 ft 164 kts 304°
2026-04-16 14:59 21.30748 115.77066 6496 ft 164 kts 304°
2026-04-16 14:59 21.31397 115.76065 6499 ft 164 kts 303°
2026-04-16 15:00 21.32047 115.75064 6499 ft 163 kts 304°
2026-04-16 15:00 21.32698 115.74063 6495 ft 164 kts 304°
2026-04-16 15:00 21.33348 115.73064 6498 ft 163 kts 304°
2026-04-16 15:00 21.33999 115.72065 6498 ft 163 kts 304°
2026-04-16 15:01 21.34652 115.71068 6495 ft 163 kts 304°
2026-04-16 15:01 21.35305 115.70070 6495 ft 163 kts 304°
2026-04-16 15:01 21.35956 115.69071 6495 ft 163 kts 304°
2026-04-16 15:01 21.36608 115.68074 6496 ft 163 kts 304°
2026-04-16 15:02 21.37258 115.67077 6498 ft 163 kts 304°
2026-04-16 15:02 21.37909 115.66079 6499 ft 163 kts 304°
2026-04-16 15:02 21.38559 115.65084 6493 ft 163 kts 304°
2026-04-16 15:02 21.39210 115.64090 6498 ft 163 kts 304°
2026-04-16 15:03 21.39859 115.63094 6494 ft 163 kts 303°
2026-04-16 15:03 21.40508 115.62099 6499 ft 163 kts 304°
2026-04-16 15:03 21.41161 115.61104 6501 ft 163 kts 304°
2026-04-16 15:03 21.41812 115.60108 6494 ft 163 kts 304°
2026-04-16 15:04 21.42464 115.59115 6493 ft 163 kts 304°
2026-04-16 15:04 21.43115 115.58125 6496 ft 162 kts 304°
2026-04-16 15:04 21.43767 115.57135 6497 ft 162 kts 304°
2026-04-16 15:04 21.44418 115.56147 6497 ft 162 kts 304°
2026-04-16 15:05 21.45069 115.55157 6493 ft 162 kts 304°
2026-04-16 15:05 21.45720 115.54166 6494 ft 162 kts 304°
2026-04-16 15:05 21.46370 115.53176 6492 ft 162 kts 304°
2026-04-16 15:05 21.47020 115.52186 6494 ft 162 kts 304°
2026-04-16 15:06 21.47670 115.51196 6491 ft 162 kts 304°
2026-04-16 15:06 21.48320 115.50207 6495 ft 162 kts 304°
2026-04-16 15:06 21.48969 115.49218 6498 ft 162 kts 304°
2026-04-16 15:06 21.49620 115.48229 6494 ft 162 kts 304°
2026-04-16 15:07 21.50260 115.47256 6494 ft 162 kts 304°
2026-04-16 15:07 21.50911 115.46266 6491 ft 162 kts 304°
2026-04-16 15:07 21.51559 115.45279 6494 ft 162 kts 304°
2026-04-16 15:07 21.52218 115.44281 6497 ft 162 kts 304°
2026-04-16 15:08 21.52858 115.43311 6492 ft 161 kts 304°
2026-04-16 15:08 21.53507 115.42328 6491 ft 161 kts 304°
2026-04-16 15:08 21.54155 115.41346 6485 ft 161 kts 304°
2026-04-16 15:08 21.54805 115.40366 6488 ft 161 kts 304°
2026-04-16 15:09 21.55453 115.39385 6491 ft 161 kts 304°
2026-04-16 15:09 21.56100 115.38404 6487 ft 161 kts 304°
2026-04-16 15:09 21.56748 115.37425 6488 ft 161 kts 304°
2026-04-16 15:09 21.57396 115.36446 6484 ft 161 kts 304°
2026-04-16 15:10 21.58043 115.35469 6489 ft 161 kts 304°
2026-04-16 15:10 21.58690 115.34489 6491 ft 161 kts 304°
2026-04-16 15:10 21.59336 115.33511 6492 ft 161 kts 304°
2026-04-16 15:10 21.59983 115.32531 6493 ft 161 kts 304°
2026-04-16 15:11 21.60628 115.31551 6493 ft 161 kts 304°
2026-04-16 15:11 21.61273 115.30572 6490 ft 160 kts 304°
2026-04-16 15:11 21.61917 115.29594 6490 ft 160 kts 304°
2026-04-16 15:11 21.62562 115.28618 6490 ft 160 kts 304°
2026-04-16 15:12 21.63206 115.27637 6491 ft 161 kts 304°
2026-04-16 15:12 21.63849 115.26656 6488 ft 160 kts 304°
2026-04-16 15:12 21.64493 115.25677 6486 ft 161 kts 304°
2026-04-16 15:12 21.65137 115.24700 6489 ft 160 kts 304°
2026-04-16 15:13 21.65782 115.23720 6487 ft 160 kts 304°
2026-04-16 15:13 21.66424 115.22740 6490 ft 160 kts 304°
2026-04-16 15:13 21.67067 115.21761 6489 ft 160 kts 304°
2026-04-16 15:13 21.67710 115.20783 6488 ft 160 kts 304°
2026-04-16 15:14 21.68352 115.19808 6491 ft 160 kts 304°
2026-04-16 15:14 21.68994 115.18831 6491 ft 160 kts 304°
2026-04-16 15:14 21.69637 115.17857 6492 ft 160 kts 304°
2026-04-16 15:14 21.70279 115.16882 6492 ft 160 kts 304°
2026-04-16 15:15 21.70919 115.15907 6487 ft 160 kts 304°
2026-04-16 15:15 21.71558 115.14931 6487 ft 160 kts 304°
2026-04-16 15:15 21.72198 115.13955 6486 ft 160 kts 304°
2026-04-16 15:15 21.72830 115.12992 6488 ft 160 kts 304°
2026-04-16 15:16 21.73473 115.12018 6488 ft 159 kts 304°
2026-04-16 15:16 21.74114 115.11043 6487 ft 160 kts 304°
2026-04-16 15:16 21.74756 115.10069 6488 ft 160 kts 304°
2026-04-16 15:16 21.75402 115.09098 6489 ft 160 kts 304°
2026-04-16 15:17 21.76045 115.08123 6492 ft 160 kts 304°
2026-04-16 15:17 21.76688 115.07151 6492 ft 160 kts 304°
2026-04-16 15:17 21.77334 115.06179 6491 ft 159 kts 304°
2026-04-16 15:17 21.77980 115.05208 6489 ft 159 kts 304°
2026-04-16 15:18 21.78628 115.04241 6487 ft 159 kts 304°
2026-04-16 15:18 21.79275 115.03274 6486 ft 159 kts 304°
2026-04-16 15:18 21.79923 115.02314 6485 ft 159 kts 304°
2026-04-16 15:18 21.80570 115.01353 6491 ft 159 kts 304°
2026-04-16 15:19 21.81209 115.00386 6490 ft 159 kts 303°
2026-04-16 15:19 21.81848 114.99419 6487 ft 159 kts 304°
2026-04-16 15:19 21.82489 114.98452 6486 ft 159 kts 304°
2026-04-16 15:19 21.83129 114.97483 6488 ft 159 kts 304°
2026-04-16 15:20 21.83767 114.96512 6487 ft 159 kts 304°
2026-04-16 15:20 21.84405 114.95541 6489 ft 159 kts 303°
2026-04-16 15:20 21.85040 114.94570 6487 ft 159 kts 304°
2026-04-16 15:20 21.85677 114.93599 6490 ft 159 kts 304°
2026-04-16 15:21 21.86313 114.92628 6487 ft 159 kts 304°
2026-04-16 15:21 21.86951 114.91659 6489 ft 159 kts 304°
2026-04-16 15:21 21.87590 114.90689 6489 ft 159 kts 304°
2026-04-16 15:21 21.88228 114.89719 6489 ft 159 kts 304°
2026-04-16 15:22 21.88865 114.88750 6487 ft 159 kts 304°
2026-04-16 15:22 21.89503 114.87778 6488 ft 159 kts 304°
2026-04-16 15:22 21.90141 114.86804 6490 ft 159 kts 304°
2026-04-16 15:22 21.90778 114.85834 6488 ft 159 kts 304°
2026-04-16 15:23 21.91394 114.84848 6488 ft 159 kts 300°
2026-04-16 15:23 21.91949 114.83821 6487 ft 158 kts 297°
2026-04-16 15:23 21.92468 114.82778 6484 ft 158 kts 296°
2026-04-16 15:23 21.93035 114.81763 6490 ft 158 kts 302°
2026-04-16 15:24 21.93682 114.80806 6489 ft 158 kts 306°
2026-04-16 15:24 21.94351 114.79886 6489 ft 158 kts 307°
2026-04-16 15:24 21.95036 114.78958 6485 ft 158 kts 307°
2026-04-16 15:24 21.95718 114.78026 6486 ft 158 kts 306°
2026-04-16 15:25 21.96389 114.77088 6488 ft 158 kts 306°
2026-04-16 15:25 21.97052 114.76142 6486 ft 158 kts 305°
2026-04-16 15:25 21.97702 114.75189 6485 ft 158 kts 304°
2026-04-16 15:25 21.98339 114.74227 6490 ft 158 kts 303°
2026-04-16 15:26 21.98970 114.73259 6490 ft 158 kts 303°
2026-04-16 15:26 21.99590 114.72286 6489 ft 158 kts 302°
2026-04-16 15:26 22.00204 114.71308 6491 ft 158 kts 302°
2026-04-16 15:26 22.00814 114.70323 6487 ft 158 kts 302°
2026-04-16 15:27 22.01419 114.69337 6486 ft 158 kts 301°
2026-04-16 15:27 22.02020 114.68345 6484 ft 158 kts 301°
2026-04-16 15:27 22.02618 114.67350 6482 ft 158 kts 301°
2026-04-16 15:28 22.02974 114.66756 6482 ft 157 kts 301°
2026-04-16 15:28 22.03568 114.65767 6484 ft 158 kts 301°
2026-04-16 15:28 22.04161 114.64773 6485 ft 158 kts 301°
2026-04-16 15:29 22.04751 114.63778 6485 ft 157 kts 301°
2026-04-16 15:29 22.05340 114.62783 6486 ft 158 kts 301°
2026-04-16 15:29 22.05906 114.61820 6482 ft 157 kts 301°
2026-04-16 15:29 22.06490 114.60824 6487 ft 157 kts 301°
2026-04-16 15:30 22.07073 114.59828 6487 ft 157 kts 300°
2026-04-16 15:30 22.07656 114.58831 6488 ft 157 kts 300°
2026-04-16 15:30 22.08240 114.57831 6483 ft 157 kts 300°
2026-04-16 15:30 22.08822 114.56832 6482 ft 157 kts 300°
2026-04-16 15:31 22.09404 114.55830 6485 ft 158 kts 300°
2026-04-16 15:31 22.09985 114.54832 6484 ft 157 kts 300°
2026-04-16 15:31 22.10583 114.53846 6477 ft 158 kts 308°
2026-04-16 15:31 22.11491 114.53187 6479 ft 159 kts 322°
2026-04-16 15:32 22.11985 114.52360 6473 ft 158 kts 281°
2026-04-16 15:32 22.11998 114.51192 6494 ft 155 kts 268°
2026-04-16 15:32 22.11964 114.50026 6490 ft 156 kts 268°
2026-04-16 15:32 22.11926 114.48857 6487 ft 156 kts 268°
2026-04-16 15:33 22.11888 114.47688 6484 ft 156 kts 268°
2026-04-16 15:33 22.11851 114.46518 6484 ft 156 kts 268°
2026-04-16 15:33 22.11813 114.45348 6484 ft 156 kts 268°
2026-04-16 15:33 22.11775 114.44177 6482 ft 156 kts 268°
2026-04-16 15:34 22.11737 114.43008 6483 ft 156 kts 268°
2026-04-16 15:34 22.11701 114.41855 6483 ft 156 kts 266°
2026-04-16 15:34 22.11654 114.40688 6484 ft 156 kts 268°
2026-04-16 15:34 22.11632 114.39521 6484 ft 156 kts 268°
2026-04-16 15:35 22.11606 114.38352 6485 ft 156 kts 268°
2026-04-16 15:35 22.11575 114.37185 6482 ft 156 kts 268°
2026-04-16 15:35 22.11542 114.36016 6485 ft 156 kts 268°
2026-04-16 15:35 22.11509 114.34849 6483 ft 156 kts 268°
2026-04-16 15:36 22.11476 114.33680 6486 ft 156 kts 268°
2026-04-16 15:36 22.11442 114.32512 6483 ft 156 kts 268°
2026-04-16 15:36 22.11408 114.31347 6483 ft 155 kts 268°
2026-04-16 15:36 22.11376 114.30181 6481 ft 156 kts 268°
2026-04-16 15:37 22.11344 114.29015 6481 ft 156 kts 268°
2026-04-16 15:37 22.11310 114.27850 6484 ft 155 kts 268°
2026-04-16 15:37 22.11276 114.26683 6481 ft 156 kts 268°
2026-04-16 15:37 22.11239 114.25518 6482 ft 156 kts 267°
2026-04-16 15:38 22.11206 114.24351 6485 ft 156 kts 268°
2026-04-16 15:38 22.11175 114.23181 6481 ft 156 kts 268°
2026-04-16 15:38 22.11141 114.22015 6482 ft 156 kts 265°
2026-04-16 15:38 22.11097 114.20848 6482 ft 156 kts 268°
2026-04-16 15:39 22.11071 114.19679 6484 ft 156 kts 268°
2026-04-16 15:39 22.11036 114.18509 6481 ft 156 kts 266°
2026-04-16 15:39 22.11138 114.17355 6471 ft 157 kts 291°
2026-04-16 15:39 22.11899 114.16549 6471 ft 159 kts 336°
2026-04-16 15:40 22.13003 114.16469 6493 ft 162 kts
2026-04-16 15:40 22.14132 114.16553 6493 ft 164 kts
2026-04-16 15:40 22.15272 114.16640 6490 ft 165 kts
2026-04-16 15:40 22.16417 114.16731 6488 ft 165 kts
2026-04-16 15:41 22.17565 114.16818 6487 ft 165 kts
2026-04-16 15:41 22.18680 114.16829 6454 ft 153 kts
2026-04-16 15:41 22.19724 114.16939 6300 ft 151 kts
2026-04-16 15:41 22.20775 114.16994 5480 ft 160 kts 353°
2026-04-16 15:42 22.21917 114.17033 4797 ft 159 kts
2026-04-16 15:42 22.22927 114.17231 4356 ft 145 kts 16°
2026-04-16 15:42 22.23914 114.17625 3596 ft 157 kts 19°
2026-04-16 15:42 22.24928 114.17987 2980 ft 153 kts 14°
2026-04-16 15:43 22.25996 114.18289 2409 ft 153 kts
2026-04-16 15:43 22.26886 114.18573 1958 ft 147 kts 19°
2026-04-16 15:43 22.27603 114.19328 1533 ft 138 kts 60°
2026-04-16 15:43 22.28058 114.20164 1285 ft 122 kts 59°
2026-04-16 15:44 22.28465 114.20886 1043 ft 105 kts 57°
2026-04-16 15:44 22.28957 114.21445 822 ft 99 kts 43°
2026-04-16 15:44 22.29453 114.21899 598 ft 87 kts 36°
2026-04-16 15:44 22.29948 114.22071 453 ft 76 kts 339°
2026-04-16 15:45 22.30358 114.21678 238 ft 81 kts 312°
2026-04-16 15:45 22.30733 114.21260 159 ft 68 kts 317°
2026-04-16 15:45 22.31055 114.20892 56 ft 63 kts 316°
2026-04-16 15:45 22.31298 114.20623 33 ft 39 kts 316°
2026-04-16 15:46 22.31455 114.20447 33 ft 25 kts 316°
2026-04-16 15:46 22.31578 114.20350 33 ft 12 kts 27°
2026-04-16 15:46 22.31651 114.20380 32 ft 7 kts 346°
2026-04-16 15:46 22.31715 114.20321 32 ft 18 kts 315°
2026-04-16 15:47 22.31806 114.20217 32 ft 29 kts 315°
2026-04-16 15:47 22.31934 114.20077 32 ft 23 kts 314°
2026-04-16 15:47 22.32055 114.19939 33 ft 28 kts 314°
2026-04-16 15:47 22.32228 114.19746 33 ft 31 kts 312°
2026-04-16 15:48 22.32310 114.19676 33 ft 16 kts 347°
2026-04-16 15:48 22.32378 114.19687 33 ft 8 kts 347°
2026-04-16 15:48 22.32404 114.19683 33 ft 4 kts 334°
2026-04-16 15:48 22.32407 114.19682 33 ft 0 kts 333°